Tracking 27380 objects as of 5-Jun-2023
HD Live streaming from Space Station
objects crossing your sky now

DELTA 1 DEB

Track DELTA 1 DEB now!
10-day predictions


NORAD ID: 7068
Int'l Code: 1973-086BL
Perigee: 1,179.3 km
Apogee: 1,506.5 km
Inclination: 102.4 °
Period: 112.4 minutes
Semi major axis: 7713 km
RCS: 0.0563 m2 (small)
Launch date: November 6, 1973
Source: United States (US)
Launch site: AIR FORCE WESTERN TEST RANGE (AFWTR)

Note: This is SATELLITE DEBRIS
Your satellite tracking list
Your tracking list is empty




NASA's NSSDC Master Catalog

Two Line Element Set (TLE):
1  7068U 73086BL  23155.86246359  .00000022  00000-0  29458-3 0  9999
2  7068 102.3772  16.5887 0212042 200.3940 290.5310 12.81424109317035
Source of the keplerian elements: AFSPC